This demonstration page uses our WeatherBlox Daily Observations layout. Learn more.

Left ArrowRight Arrow

39.51506, -84.39828

Hourly Observations for May 17, 2020

Temp ( °F °C ) Dew Point ( °F °C ) Humidity (%) Winds ( mph kmh ) Pressure ( in mb ) Visibility ( mi km ) Precip ( " mm )
12:15 am 00:15 undefined 66 19.1 62 16.6 86 86 NE 3 6 30.01 1016 N/A 0 0
12:35 am 00:35 undefined 66 19 62 16.5 86 86 Calm 30.01 1016 N/A 0 0
12:55 am 00:55 undefined 66 18.8 62 16.5 87 87 NE 3 6 30 1016 N/A 0 0
1:15 am 01:15 undefined 66 18.8 62 16.5 87 87 Calm 30 1016 N/A 0 0
1:35 am 01:35 undefined 66 18.7 62 16.5 87 87 Calm 30 1016 N/A 0 0
1:55 am 01:55 Mostly Cloudy 66 18.9 61 16.3 85 85 Calm 30 1016 N/A 0 0
2:15 am 02:15 undefined 65 18.3 62 16.5 89 89 Calm 30 1016 N/A 0 0
2:35 am 02:35 undefined 64 17.8 62 16.7 93 93 ENE 5 7 29.99 1016 N/A 0 0
2:55 am 02:55 Cloudy 65 18.3 62 16.6 90 90 ENE 3 6 29.98 1015 N/A 0 0
3:15 am 03:15 undefined 64 17.9 62 16.6 92 92 NE 3 6 29.97 1015 N/A 0 0
3:35 am 03:35 undefined 64 17.8 62 16.5 92 92 NE 3 6 29.97 1015 N/A 0 0
3:55 am 03:55 undefined 63 17.3 62 16.5 95 95 Calm 29.96 1015 N/A 0 0
4:15 am 04:15 undefined 63 17.4 62 16.5 94 94 Calm 29.96 1015 N/A 0 0
4:35 am 04:35 undefined 62 16.8 61 16.3 97 97 Calm 29.95 1014 N/A 0 0
4:55 am 04:55 undefined 62 16.4 61 16 98 98 NE 3 6 29.95 1014 N/A 0 0
5:15 am 05:15 undefined 61 16 60 15.6 97 97 Calm 29.95 1014 N/A 0 0
5:35 am 05:35 Mostly Cloudy 61 16 60 15.6 97 97 Calm 29.94 1014 N/A 0 0
5:55 am 05:55 undefined 60 15.8 60 15.6 99 99 NNE 3 6 29.94 1014 N/A 0 0
6:15 am 06:15 undefined 61 16 60 15.3 96 96 Calm 29.94 1014 N/A 0 0
6:35 am 06:35 undefined 60 15.8 60 15.3 97 97 Calm 29.94 1014 N/A 0 0
6:55 am 06:55 undefined 60 15.6 59 14.8 95 95 Calm 29.96 1014 N/A 0 0
7:15 am 07:15 Mostly Cloudy 61 16.2 60 15.6 96 96 Calm 29.95 1014 N/A 0 0
7:35 am 07:35 Cloudy 64 17.5 61 16 91 91 Calm 29.96 1015 N/A 0 0
7:55 am 07:55 Mostly Cloudy 64 17.6 60 15.7 89 89 Calm 29.96 1015 N/A 0 0
8:15 am 08:15 Mostly Cloudy 64 18 60 15.3 84 84 Calm 29.96 1015 N/A 0 0
8:35 am 08:35 Sunny 66 18.7 60 15.7 83 83 Calm 29.96 1014 N/A 0 0
8:55 am 08:55 Sunny 67 19.4 61 16.2 82 82 S 5 7 29.97 1015 N/A 0 0
9:15 am 09:15 Sunny 69 20.4 62 16.7 79 79 Calm 29.96 1015 N/A 0 0
9:35 am 09:35 Sunny 69 20.8 63 17.4 81 81 S 5 7 29.95 1014 N/A 0 0
9:55 am 09:55 Sunny 70 21.2 64 17.7 81 81 Calm 29.95 1014 N/A 0 0
10:15 am 10:15 Partly Cloudy 72 22.2 65 18.3 79 79 SW 7 11 29.95 1014 N/A 0 0
10:35 am 10:35 Partly Cloudy 73 22.8 65 18.2 75 75 SSW 9 15 29.95 1014 N/A 0 0
10:55 am 10:55 Partly Cloudy 73 22.8 64 18 74 74 SW 7 11 29.95 1014 N/A 0 0
11:15 am 11:15 Sunny 74 23.5 65 18.3 73 73 SSW 7 11 29.94 1014 N/A 0 0
11:35 am 11:35 Sunny 75 24 65 18.5 71 71 SW 7 11 29.95 1014 N/A 0 0
11:55 am 11:55 Sunny 77 24.8 65 18.4 68 68 WSW 8 13 29.93 1014 N/A 0 0
12:15 pm 12:15 Sunny 77 25.2 65 18.4 66 66 SW 9 15 29.93 1014 N/A 0 0
12:35 pm 12:35 Sunny 78 25.7 65 18.4 64 64 SSW 7 11 29.92 1013 N/A 0 0
12:55 pm 12:55 Sunny 79 26.1 66 18.8 64 64 SSW 8 13 29.92 1013 N/A 0 0
1:15 pm 13:15 Sunny 81 27.2 65 18.2 58 58 WSW 13 20 29.91 1013 N/A 0 0
1:35 pm 13:35 Sunny 82 27.5 62 16.8 52 52 SSW 14 22 29.9 1012 N/A 0 0
1:55 pm 13:55 Sunny 81 27.1 63 17.1 54 54 SSW 13 20 29.9 1012 N/A 0 0
2:15 pm 14:15 Partly Cloudy 81 27.1 63 17.1 54 54 SW 13 20 29.89 1012 N/A 0 0
2:35 pm 14:35 Partly Cloudy 81 27 62 16.7 53 53 SW 12 19 29.88 1012 N/A 0 0
2:55 pm 14:55 Mostly Cloudy 80 26.8 62 16.6 54 54 SW 12 19 29.88 1012 N/A 0 0
3:15 pm 15:15 Mostly Cloudy 80 26.5 63 17.2 57 57 WSW 13 20 29.88 1012 N/A 0 0
3:35 pm 15:35 Partly Cloudy 79 26.3 62 16.8 56 56 SW 12 19 29.87 1012 N/A 0 0
3:55 pm 15:55 Cloudy 78 25.8 61 16.3 56 56 SW 10 17 29.87 1012 N/A 0 0
4:15 pm 16:15 Partly Cloudy 78 25.7 63 17.2 59 59 SW 10 17 29.86 1011 N/A 0 0
4:35 pm 16:35 Partly Cloudy 78 25.7 63 17.3 60 60 SW 10 17 29.85 1011 N/A 0 0
4:55 pm 16:55 Mostly Cloudy 78 25.5 63 17.4 61 61 WSW 7 11 29.85 1011 N/A 0 0
5:15 pm 17:15 Partly Cloudy 78 25.3 64 17.5 62 62 WSW 9 15 29.85 1011 N/A 0 0
5:35 pm 17:35 Cloudy 77 24.9 64 18 66 66 WSW 6 9 29.84 1011 N/A 0 0
5:55 pm 17:55 Cloudy 76 24.7 65 18.2 67 67 WSW 8 13 29.84 1011 N/A 0 0
6:15 pm 18:15 Cloudy 74 23.4 65 18.1 72 72 WSW 9 15 29.86 1011 N/A 0 0
6:35 pm 18:35 Cloudy 72 22.3 66 18.7 80 80 SW 7 11 29.86 1011 N/A 0 0
6:55 pm 18:55 Cloudy 72 22 67 19.3 85 85 WSW 9 15 29.86 1011 N/A 0 0
7:15 pm 19:15 undefined 71 21.6 67 19.5 88 88 WNW 3 6 29.84 1011 N/A 0 0
7:35 pm 19:35 undefined 71 21.5 67 19.4 88 88 S 3 6 29.83 1010 N/A 0 0
7:55 pm 19:55 Cloudy 70 21.3 66 19.1 87 87 Calm 29.82 1010 N/A 0 0
8:15 pm 20:15 Cloudy 69 20.8 67 19.3 91 91 Calm 29.82 1010 N/A 0 0
8:35 pm 20:35 Cloudy 69 20.4 67 19.5 95 95 Calm 29.82 1010 N/A 0 0
8:55 pm 20:55 undefined 68 19.8 67 19.5 98 98 Calm 29.83 1010 N/A 0 0
9:15 pm 21:15 Cloudy 67 19.7 67 19.5 99 99 Calm 29.82 1010 N/A 0 0
9:35 pm 21:35 undefined 67 19.7 67 19.6 99 99 Calm 29.83 1010 N/A 0 0
9:55 pm 21:55 Cloudy 67 19.7 67 19.6 99 99 Calm 29.82 1010 N/A 0 0
10:15 pm 22:15 Mostly Cloudy 67 19.4 67 19.3 99 99 Calm 29.82 1010 N/A 0 0
10:35 pm 22:35 Cloudy 66 19.1 66 19 99 99 Calm 29.82 1010 N/A 0 0
10:55 pm 22:55 undefined 66 19.1 66 19.1 100 100 Calm 29.82 1010 N/A 0 0
11:15 pm 23:15 Mostly Cloudy 65 18.6 65 18.6 100 100 Calm 29.81 1009 N/A 0 0
11:35 pm 23:35 Mostly Cloudy 65 18.6 65 18.6 100 100 Calm 29.82 1010 N/A 0 0
11:55 pm 23:55 Mostly Cloudy 65 18.6 65 18.5 99 99 Calm 29.81 1009 N/A 0 0

Powered by AerisWeather